Highgate, VT

3:25 AM EST on November 21, 2019 (GMT -0500)
Franklin County State

Weather History for KFSO - September, 2019

Change the Weather History Date:

Saturday, September 28, 2019

  Actual Average (KPBG) Record (KPBG)
Temperature  
Mean Temperature 66 °F -  
Max Temperature 69 °F 64 °F 82 °F (1959)
Min Temperature 62 °F 46 °F 29 °F (1956)
Cooling Degree Days 1    
Growing Degree Days 16 (Base 50)    
Moisture  
Dew Point 58 °F    
Average Humidity 78    
Maximum Humidity 96    
Minimum Humidity 57    
Precipitation  
Precipitation 0.00 in - - ()
Sea Level Pressure  
Sea Level Pressure 29.98 in    
Wind  
Wind Speed 5 mph (South)    
Max Wind Speed 12 mph    
Max Gust Speed 20 mph    
Visibility 9 miles    
Events Rain    
Averages and records for this station are not official NWS values.
T = Trace of Precipitation, MM = Missing Value Source: NWS Daily Summary

Daily Weather History Graph

Daily Weather History Graph

Search for Another Location

Airport or City:

Astronomy

Sep. 28, 2019 Rise Set
Actual Time 6:46 AM EDT 6:38 PM EDT
Civil Twilight 6:17 AM EDT 7:08 PM EDT
Nautical Twilight 5:43 AM EDT 7:42 PM EDT
Astronomical Twilight 5:08 AM EDT 8:16 PM EDT
Moon 6:15 AM EDT (9/28) 7:05 PM EDT (9/28)
Length of Visible Light 12h 50m
Length of Day
11h 52m
Waning Crescent, 0% of the Moon is Illuminated
Sep 28
Waning Crescent
Sep 28
New
Oct 5
First Quarter
Oct 13
Full
Oct 21
Last Quarter

Hourly Weather History & Observations

Time (EDT) Temp. Dew Point Humidity Pressure Visibility Wind Dir Wind Speed Gust Speed Precip Events Conditions
12:16 AM 64.0 °F 51.6 °F 64% 30.03 in 10.0 mi South 3.5 mph - N/A   Overcast
12:35 AM 63.9 °F 52.0 °F 65% 30.02 in 10.0 mi South 4.6 mph - N/A   Overcast
12:55 AM 63.7 °F 52.2 °F 66% 30.01 in 10.0 mi South 5.8 mph - N/A   Overcast
1:15 AM 63.7 °F 52.7 °F 67% 30.00 in 10.0 mi South 5.8 mph - N/A   Overcast
1:36 AM 64.4 °F 52.5 °F 65% 29.99 in 10.0 mi South 8.1 mph - N/A   Overcast
1:55 AM 64.6 °F 52.2 °F 64% 29.97 in 10.0 mi South 10.4 mph - N/A   Overcast
2:15 AM 65.3 °F 52.0 °F 62% 29.97 in 10.0 mi South 8.1 mph - N/A   Mostly Cloudy
2:36 AM 65.3 °F 51.8 °F 62% 29.97 in 10.0 mi South 8.1 mph - N/A   Overcast
2:55 AM 65.7 °F 51.4 °F 60% 29.97 in 10.0 mi South 9.2 mph - N/A   Overcast
3:16 AM 65.7 °F 51.6 °F 60% 29.96 in 10.0 mi South 9.2 mph - N/A   Overcast
3:35 AM 65.7 °F 51.1 °F 59% 29.97 in 10.0 mi South 8.1 mph - N/A   Overcast
3:56 AM 65.7 °F 51.1 °F 59% 29.97 in 10.0 mi South 8.1 mph - N/A   Mostly Cloudy
4:16 AM 65.5 °F 51.1 °F 60% 29.97 in 10.0 mi SSW 6.9 mph - N/A   Mostly Cloudy
4:55 AM 65.7 °F 50.5 °F 58% 29.95 in 10.0 mi South 6.9 mph - N/A   Overcast
5:16 AM 65.8 °F 50.4 °F 57% 29.95 in 10.0 mi South 6.9 mph - N/A   Overcast
5:35 AM 66.2 °F 50.4 °F 57% 29.95 in 10.0 mi South 6.9 mph - N/A   Mostly Cloudy
5:55 AM 65.3 °F 51.3 °F 60% 29.95 in 10.0 mi South 11.5 mph 16.1 mph N/A Rain Light Rain
6:16 AM 65.3 °F 51.3 °F 60% 29.96 in 10.0 mi South 9.2 mph - N/A   Overcast
6:36 AM 65.7 °F 50.9 °F 59% 29.97 in 10.0 mi SSW 8.1 mph 16.1 mph N/A   Light Drizzle
6:56 AM 65.7 °F 50.9 °F 59% 29.97 in 10.0 mi South 9.2 mph 19.6 mph N/A   Overcast
7:15 AM 63.1 °F 53.4 °F 71% 29.97 in 10.0 mi South 6.9 mph 16.1 mph N/A Rain Light Rain
7:36 AM 64.0 °F 52.5 °F 66% 29.97 in 10.0 mi South 6.9 mph - N/A   Overcast
7:55 AM 63.9 °F 52.9 °F 67% 29.96 in 10.0 mi South 8.1 mph - N/A Rain Light Rain
8:15 AM 64.6 °F 52.5 °F 65% 29.95 in 10.0 mi South 6.9 mph - N/A   Overcast
8:36 AM 65.3 °F 52.7 °F 64% 29.95 in 10.0 mi South 4.6 mph - N/A   Overcast
8:55 AM 66.2 °F 52.9 °F 62% 29.96 in 10.0 mi South 8.1 mph - N/A   Overcast
9:15 AM 66.6 °F 53.6 °F 63% 29.95 in 10.0 mi South 11.5 mph 17.3 mph N/A   Mostly Cloudy
9:36 AM 66.4 °F 54.0 °F 64% 29.96 in 10.0 mi South 6.9 mph - N/A   Scattered Clouds
9:56 AM 66.2 °F 54.3 °F 65% 29.96 in 10.0 mi South 6.9 mph - N/A   Mostly Cloudy
10:16 AM 67.1 °F 55.0 °F 65% 29.97 in 10.0 mi SSW 4.6 mph - N/A   Mostly Cloudy
10:35 AM 67.1 °F 55.4 °F 66% 29.96 in 10.0 mi SSW 10.4 mph 17.3 mph N/A   Mostly Cloudy
10:56 AM 66.6 °F 55.9 °F 69% 29.95 in 10.0 mi South 8.1 mph 16.1 mph N/A   Mostly Cloudy
11:15 AM 66.2 °F 56.8 °F 72% 29.93 in 10.0 mi South 5.8 mph - N/A Rain Light Rain
11:36 AM 66.7 °F 57.4 °F 72% 29.93 in 10.0 mi South 5.8 mph - N/A   Overcast
11:55 AM 64.6 °F 59.0 °F 82% 29.94 in 5.0 mi South 8.1 mph - N/A Rain Rain
12:15 PM 63.9 °F 59.9 °F 87% 29.93 in 10.0 mi South 5.8 mph - N/A Rain Light Rain
12:36 PM 64.4 °F 60.8 °F 88% 29.94 in 10.0 mi SSW 5.8 mph - N/A   Overcast
12:55 PM 64.4 °F 60.6 °F 88% 29.94 in 10.0 mi South 8.1 mph - N/A   Overcast
1:16 PM 64.4 °F 61.0 °F 89% 29.95 in 10.0 mi Calm Calm - N/A   Overcast
1:35 PM 64.6 °F 61.3 °F 89% 29.95 in 10.0 mi Calm Calm - N/A   Overcast
1:56 PM 65.3 °F 61.7 °F 88% 29.95 in 10.0 mi Calm Calm - N/A Rain Heavy Rain
2:15 PM 64.9 °F 62.6 °F 92% 29.95 in 10.0 mi South 3.5 mph - N/A Rain Rain
2:35 PM 65.3 °F 63.0 °F 92% 29.95 in 10.0 mi South 3.5 mph - N/A   Overcast
2:55 PM 65.5 °F 63.3 °F 93% 29.95 in 10.0 mi South 3.5 mph - N/A   Light Drizzle
3:16 PM 66.6 °F 64.4 °F 93% 29.95 in 10.0 mi South 3.5 mph - N/A   Overcast
3:35 PM 68.7 °F 64.6 °F 87% 29.94 in 10.0 mi South 3.5 mph - N/A   Overcast
3:55 PM 69.4 °F 64.4 °F 84% 29.94 in 10.0 mi South 4.6 mph - N/A   Overcast
4:16 PM 69.1 °F 64.8 °F 86% 29.95 in 10.0 mi Calm Calm - N/A   Overcast
4:36 PM 68.9 °F 64.6 °F 86% 29.95 in 10.0 mi Calm Calm - N/A   Overcast
4:55 PM 68.5 °F 64.9 °F 88% 29.96 in 10.0 mi Calm Calm - N/A   Overcast
5:16 PM 67.3 °F 65.5 °F 94% 29.97 in 4.0 mi Calm Calm - N/A   Drizzle
5:36 PM 66.6 °F 65.3 °F 96% 29.98 in 4.0 mi Calm Calm - N/A   Heavy Drizzle
5:55 PM 66.2 °F 64.8 °F 95% 29.99 in 3.0 mi Calm Calm - N/A Rain Heavy Rain
6:15 PM 66.2 °F 64.8 °F 95% 29.99 in 5.0 mi Calm Calm - N/A   Light Drizzle
6:35 PM 66.2 °F 64.8 °F 95% 29.99 in 7.0 mi Calm Calm - N/A   Overcast
6:56 PM 65.8 °F 64.6 °F 96% 30.00 in 5.0 mi Calm Calm - N/A   Light Drizzle
7:15 PM 65.8 °F 64.6 °F 96% 30.00 in 5.0 mi Calm Calm - N/A   Drizzle
7:35 PM 65.8 °F 64.6 °F 96% 30.01 in 4.0 mi Calm Calm - N/A   Heavy Drizzle
8:16 PM 65.8 °F 64.6 °F 96% 30.03 in 2.5 mi NNW 3.5 mph - N/A   Heavy Drizzle
8:35 PM 64.8 °F 63.5 °F 96% 30.04 in 3.0 mi NW 3.5 mph - N/A   Drizzle
8:56 PM 64.4 °F 63.3 °F 96% 30.05 in 7.0 mi NW 3.5 mph - N/A   Overcast
9:16 PM 64.4 °F 63.1 °F 96% 30.06 in 7.0 mi Calm Calm - N/A Rain Rain
9:35 PM 64.4 °F 63.1 °F 96% 30.07 in 10.0 mi Calm Calm - N/A   Overcast
9:56 PM 64.4 °F 63.0 °F 95% 30.08 in 10.0 mi Calm Calm - N/A   Overcast
10:15 PM 64.0 °F 62.8 °F 96% 30.09 in 10.0 mi Calm Calm - N/A   Overcast
10:36 PM 64.0 °F 62.8 °F 96% 30.09 in 10.0 mi WNW 3.5 mph - N/A   Overcast
10:55 PM 63.7 °F 62.6 °F 96% 30.10 in 10.0 mi Calm Calm - N/A   Overcast
11:16 PM 63.5 °F 62.1 °F 95% 30.10 in 10.0 mi NW 3.5 mph - N/A   Overcast
11:35 PM 63.1 °F 61.9 °F 96% 30.11 in 10.0 mi Calm Calm - N/A   Overcast
11:56 PM 62.8 °F 61.7 °F 96% 30.13 in 10.0 mi NW 3.5 mph - N/A   Overcast